Weather History for V.C. Bird, Antigua

Change the Weather History Date:

Tuesday, February 19, 2013

  Actual Average Record
Temperature  
Mean Temperature 79 °F -  
Max Temperature 83 °F 81 °F 84 °F (1998)
Min Temperature 75 °F 72 °F 69 °F (1999)
Cooling Degree Days 14    
Growing Degree Days 29 (Base 50)    
Moisture  
Dew Point 67 °F    
Average Humidity 65    
Maximum Humidity 78    
Minimum Humidity 51    
Precipitation  
Precipitation 0.00 in - - ()
Sea Level Pressure  
Sea Level Pressure 30.05 in    
Wind  
Wind Speed 12 mph ()    
Max Wind Speed 15 mph    
Max Gust Speed -    
Visibility 8.5 miles    
Events      
Averages and records for this station are not official NWS values.
T = Trace of Precipitation, MM = Missing Value Source: Averaged Metar Reports

Daily Weather History Graph

Daily Weather History Graph

Search for Another Location

Airport:

Trip Planner

Search our weather history database for the weather conditions in past years. The results will help you decide how hot, cold, wet, or windy it might be!

Date:

Astronomy

Feb. 19, 2013 Rise Set
Actual Time 6:31 AM AST 6:10 PM AST
Civil Twilight 6:09 AM AST 6:32 PM AST
Nautical Twilight 5:43 AM AST 6:58 PM AST
Astronomical Twilight 5:18 AM AST 7:23 PM AST
Moon 1:04 PM AST (2/19) 1:34 AM AST (2/19)
Length of Visible Light 12h 23m
Length of Day
11h 39m
Waxing Gibbous, 67% of the Moon is Illuminated
Feb 19
Waxing Gibbous
Feb 25
Full
Mar 4
Last Quarter
Mar 11
New
Mar 19
First Quarter

Hourly Weather History & Observations

Time (AST) Temp. Heat Index Dew Point Humidity Pressure Visibility Wind Dir Wind Speed Gust Speed Precip Events Conditions
12:00 AM 75.2 °F - 68.0 °F 78% 30.06 in 6.2 mi East 9.2 mph - N/A   Scattered Clouds
1:00 AM 77.0 °F - 68.0 °F 74% 30.06 in 6.2 mi East 12.7 mph - N/A   Scattered Clouds
2:00 AM 76 °F - 67 °F 65% 30.06 in 16 mi East 12.7 mph - -   Haze
2:00 AM 77.0 °F - 66.2 °F 69% 30.04 in 6.2 mi East 12.7 mph - N/A   Scattered Clouds
3:00 AM 77.0 °F - 66.2 °F 69% 30.04 in 6.2 mi East 12.7 mph - N/A   Partly Cloudy
4:00 AM 77.0 °F - 64.4 °F 65% 30.04 in 6.2 mi East 13.8 mph - N/A   Partly Cloudy
5:00 AM 76 °F - 66 °F 63% 30.04 in 16 mi East 13.8 mph - -   Haze
5:00 AM 75.2 °F - 66.2 °F 73% 30.04 in 6.2 mi East 13.8 mph - N/A   Partly Cloudy
6:00 AM 75.2 °F - 68.0 °F 78% 30.04 in 6.2 mi ENE 13.8 mph - N/A   Partly Cloudy
7:00 AM 77.0 °F - 68.0 °F 74% 30.04 in 6.2 mi East 12.7 mph - N/A   Partly Cloudy
8:00 AM 78 °F - 63 °F 51% 30.08 in 16 mi East 13.8 mph - -   Haze
8:00 AM 78.8 °F - 62.6 °F 57% 30.06 in 6.2 mi East 13.8 mph - N/A   Mostly Cloudy
9:00 AM 80.6 °F 83.2 °F 68.0 °F 65% 30.09 in 6.2 mi East 13.8 mph - N/A   Partly Cloudy
10:00 AM 80.6 °F 83.2 °F 68.0 °F 65% 30.09 in 6.2 mi East 13.8 mph - N/A   Partly Cloudy
11:00 AM 82 °F - 67 °F 51% 30.10 in 16 mi East 15.0 mph - -   Haze
11:00 AM 82.4 °F 84.6 °F 66.2 °F 58% 30.09 in 6.2 mi East 15.0 mph - N/A   Partly Cloudy
12:00 PM 82.4 °F 84.6 °F 66.2 °F 58% 30.06 in 6.2 mi East 13.8 mph - N/A   Partly Cloudy
1:00 PM 82.4 °F 85.4 °F 68.0 °F 62% 30.04 in 6.2 mi East 13.8 mph - N/A   Mostly Cloudy
2:00 PM 82 °F - 67 °F 51% 30.04 in 16 mi East 13.8 mph - -   Haze
2:00 PM 82.4 °F 84.6 °F 66.2 °F 58% 30.04 in 6.2 mi East 13.8 mph - N/A   Mostly Cloudy
3:00 PM 80.6 °F 83.2 °F 68.0 °F 65% 30.01 in 6.2 mi East 13.8 mph - N/A   Mostly Cloudy
4:00 PM 80.6 °F 82.7 °F 66.2 °F 61% 30.01 in 6.2 mi East 13.8 mph - N/A   Scattered Clouds
5:00 PM 79 °F - 67 °F 58% 30.03 in 16 mi East 13.8 mph - -   Haze
5:00 PM 78.8 °F - 66.2 °F 65% 30.01 in 6.2 mi East 13.8 mph - N/A   Scattered Clouds
6:00 PM 77.0 °F - 66.2 °F 69% 30.04 in 6.2 mi East 11.5 mph - N/A   Scattered Clouds
7:00 PM 77.0 °F - 66.2 °F 69% 30.04 in 6.2 mi ENE 12.7 mph - N/A   Scattered Clouds
9:00 PM 77.0 °F - 68.0 °F 74% 30.04 in 6.2 mi East 9.2 mph - N/A   Partly Cloudy
10:00 PM 77.0 °F - 68.0 °F 74% 30.06 in 6.2 mi East 12.7 mph - N/A   Scattered Clouds
11:00 PM 76 °F - 67 °F 68% 30.07 in 16 mi East 12.7 mph - -   Haze
11:00 PM 77.0 °F - 68.0 °F 74% 30.06 in 6.2 mi East 12.7 mph - N/A   Scattered Clouds